����������;��������(kWh)
2016-12-05 00:00;92,35
2016-12-05 00:15;92,95
2016-12-05 00:30;92,8
2016-12-05 00:45;92,6
2016-12-05 01:00;93,6
2016-12-05 01:15;89,85
2016-12-05 01:30;90,8
2016-12-05 01:45;91,75
2016-12-05 02:00;89,9
2016-12-05 02:15;90,1
2016-12-05 02:30;91,2
2016-12-05 02:45;89
2016-12-05 03:00;94,7
2016-12-05 03:15;96,25
2016-12-05 03:30;95,65
2016-12-05 03:45;95,8
2016-12-05 04:00;95,7
2016-12-05 04:15;94,15
2016-12-05 04:30;96,4
2016-12-05 04:45;91,75
2016-12-05 05:00;88,45
2016-12-05 05:15;92,45
2016-12-05 05:30;91,65
2016-12-05 05:45;96,55
2016-12-05 06:00;94,45
2016-12-05 06:15;99,3
2016-12-05 06:30;99,65
2016-12-05 06:45;97,8
2016-12-05 07:00;102
2016-12-05 07:15;102,4
2016-12-05 07:30;108,6
2016-12-05 07:45;124,1
2016-12-05 08:00;126,25
2016-12-05 08:15;129,9
2016-12-05 08:30;138,45
2016-12-05 08:45;156,2
2016-12-05 09:00;162,15
2016-12-05 09:15;173,6
2016-12-05 09:30;216,6
2016-12-05 09:45;216,65
2016-12-05 10:00;210,05
2016-12-05 10:15;206,35
2016-12-05 10:30;226,25
2016-12-05 10:45;225,75
2016-12-05 11:00;235,55
2016-12-05 11:15;258,4
2016-12-05 11:30;263,7
2016-12-05 11:45;267,8
2016-12-05 12:00;277,8
2016-12-05 12:15;279,8
2016-12-05 12:30;280,15
2016-12-05 12:45;283,25
2016-12-05 13:00;286,95
2016-12-05 13:15;286,9
2016-12-05 13:30;287,5
2016-12-05 13:45;280,6
2016-12-05 14:00;283,75
2016-12-05 14:15;277,6
2016-12-05 14:30;265,05
2016-12-05 14:45;264,45
2016-12-05 15:00;256,25
2016-12-05 15:15;251,8
2016-12-05 15:30;240,3
2016-12-05 15:45;245,1
2016-12-05 16:00;230,95
2016-12-05 16:15;220,05
2016-12-05 16:30;218,1
2016-12-05 16:45;216,1
2016-12-05 17:00;213,2
2016-12-05 17:15;208
2016-12-05 17:30;197,8
2016-12-05 17:45;208,8
2016-12-05 18:00;203,6
2016-12-05 18:15;186,6
2016-12-05 18:30;174,45
2016-12-05 18:45;178,15
2016-12-05 19:00;176,4
2016-12-05 19:15;166,3
2016-12-05 19:30;169,85
2016-12-05 19:45;162,65
2016-12-05 20:00;153,05
2016-12-05 20:15;153,75
2016-12-05 20:30;149,75
2016-12-05 20:45;145,45
2016-12-05 21:00;143,95
2016-12-05 21:15;132,25
2016-12-05 21:30;133,7
2016-12-05 21:45;127
2016-12-05 22:00;121,05
2016-12-05 22:15;128,55
2016-12-05 22:30;121,5
2016-12-05 22:45;119,9
2016-12-05 23:00;125
2016-12-05 23:15;114,3
2016-12-05 23:30;108,35
2016-12-05 23:45;110,45
2016-12-06 00:00;106,35
2016-12-06 00:15;110,1
2016-12-06 00:30;107,95
2016-12-06 00:45;107,3
2016-12-06 01:00;106,4
2016-12-06 01:15;103
2016-12-06 01:30;100,4
2016-12-06 01:45;100,7
2016-12-06 02:00;101,65
2016-12-06 02:15;100
2016-12-06 02:30;99,75
2016-12-06 02:45;98,9
2016-12-06 03:00;96,25
2016-12-06 03:15;98,55
2016-12-06 03:30;97,2
2016-12-06 03:45;97,05
2016-12-06 04:00;96,7
2016-12-06 04:15;96,85
2016-12-06 04:30;97,25
2016-12-06 04:45;97,35
2016-12-06 05:00;96,9
2016-12-06 05:15;99,55
2016-12-06 05:30;100,15
2016-12-06 05:45;103
2016-12-06 06:00;100,75
2016-12-06 06:15;106,05
2016-12-06 06:30;107,7
2016-12-06 06:45;107,4
2016-12-06 07:00;106,3
2016-12-06 07:15;104,6
2016-12-06 07:30;101,3
2016-12-06 07:45;169,6
2016-12-06 08:00;126
2016-12-06 08:15;139
2016-12-06 08:30;154,8
2016-12-06 08:45;176,5
2016-12-06 09:00;187,6
2016-12-06 09:15;195,6
2016-12-06 09:30;209,35
2016-12-06 09:45;210,65
2016-12-06 10:00;235,2
2016-12-06 10:15;243,6
2016-12-06 10:30;252
2016-12-06 10:45;262,15
2016-12-06 11:00;251,35
2016-12-06 11:15;250,75
2016-12-06 11:30;251,5
2016-12-06 11:45;242
2016-12-06 12:00;240,9
2016-12-06 12:15;243,1
2016-12-06 12:30;235,75
2016-12-06 12:45;238,3
2016-12-06 13:00;238
2016-12-06 13:15;225,6
2016-12-06 13:30;237,95
2016-12-06 13:45;228,5
2016-12-06 14:00;231,5
2016-12-06 14:15;223,55
2016-12-06 14:30;212,55
2016-12-06 14:45;212,5
2016-12-06 15:00;200,25
2016-12-06 15:15;190,2
2016-12-06 15:30;200,5
2016-12-06 15:45;193,8
2016-12-06 16:00;190,85
2016-12-06 16:15;186,95
2016-12-06 16:30;188,9
2016-12-06 16:45;173,35
2016-12-06 17:00;173,35
2016-12-06 17:15;178,1
2016-12-06 17:30;167,7
2016-12-06 17:45;177,1
2016-12-06 18:00;180,5
2016-12-06 18:15;169,55
2016-12-06 18:30;173,6
2016-12-06 18:45;169,15
2016-12-06 19:00;166,75
2016-12-06 19:15;155,95
2016-12-06 19:30;155,45
2016-12-06 19:45;152,5
2016-12-06 20:00;151,95
2016-12-06 20:15;141,65
2016-12-06 20:30;141,2
2016-12-06 20:45;141,15
2016-12-06 21:00;140,3
2016-12-06 21:15;139,15
2016-12-06 21:30;134
2016-12-06 21:45;132,6
2016-12-06 22:00;130,1
2016-12-06 22:15;127,4
2016-12-06 22:30;120,65
2016-12-06 22:45;113,35
2016-12-06 23:00;116,4
2016-12-06 23:15;107,25
2016-12-06 23:30;101,5
2016-12-06 23:45;98,1
2016-12-07 00:00;97,85
2016-12-07 00:15;95,55
2016-12-07 00:30;94
2016-12-07 00:45;90,05
2016-12-07 01:00;91,45
2016-12-07 01:15;91
2016-12-07 01:30;90,9
2016-12-07 01:45;92,6
2016-12-07 02:00;91,2
2016-12-07 02:15;92,2
2016-12-07 02:30;91,8
2016-12-07 02:45;91,8
2016-12-07 03:00;91,8
2016-12-07 03:15;92,5
2016-12-07 03:30;94
2016-12-07 03:45;91,5
2016-12-07 04:00;91,25
2016-12-07 04:15;91,55
2016-12-07 04:30;92,45
2016-12-07 04:45;92,7
2016-12-07 05:00;92,9
2016-12-07 05:15;105,05
2016-12-07 05:30;113,7
2016-12-07 05:45;113,95
2016-12-07 06:00;110,9
2016-12-07 06:15;107,4
2016-12-07 06:30;108,95
2016-12-07 06:45;110,7
2016-12-07 07:00;113,15
2016-12-07 07:15;109,85
2016-12-07 07:30;106,5
2016-12-07 07:45;119,55
2016-12-07 08:00;120,65
2016-12-07 08:15;126,1
2016-12-07 08:30;138,1
2016-12-07 08:45;149,25
2016-12-07 09:00;161,5
2016-12-07 09:15;164,7
2016-12-07 09:30;187,2
2016-12-07 09:45;213,55
2016-12-07 10:00;181,8
2016-12-07 10:15;205,6
2016-12-07 10:30;213,3
2016-12-07 10:45;231,55
2016-12-07 11:00;221,95
2016-12-07 11:15;222,85
2016-12-07 11:30;207,75
2016-12-07 11:45;212,6
2016-12-07 12:00;208,05
2016-12-07 12:15;216,4
2016-12-07 12:30;209,45
2016-12-07 12:45;208,7
2016-12-07 13:00;198
2016-12-07 13:15;211,6
2016-12-07 13:30;202,35
2016-12-07 13:45;202,5
2016-12-07 14:00;189,35
2016-12-07 14:15;200,35
2016-12-07 14:30;204,25
2016-12-07 14:45;195,85
2016-12-07 15:00;193,85
2016-12-07 15:15;190,35
2016-12-07 15:30;191,65
2016-12-07 15:45;174,2
2016-12-07 16:00;177,15
2016-12-07 16:15;171,7
2016-12-07 16:30;174,25
2016-12-07 16:45;183,3
2016-12-07 17:00;173,6
2016-12-07 17:15;185,1
2016-12-07 17:30;180,85
2016-12-07 17:45;181,25
2016-12-07 18:00;194,25
2016-12-07 18:15;163,35
2016-12-07 18:30;162,25
2016-12-07 18:45;162,45
2016-12-07 19:00;151,6
2016-12-07 19:15;151,45
2016-12-07 19:30;149,4
2016-12-07 19:45;146,55
2016-12-07 20:00;138,9
2016-12-07 20:15;136,35
2016-12-07 20:30;131,1
2016-12-07 20:45;128,75
2016-12-07 21:00;129,8
2016-12-07 21:15;129,15
2016-12-07 21:30;123,1
2016-12-07 21:45;116,35
2016-12-07 22:00;113,4
2016-12-07 22:15;120,35
2016-12-07 22:30;115,95
2016-12-07 22:45;114,15
2016-12-07 23:00;112,95
2016-12-07 23:15;107
2016-12-07 23:30;105,75
2016-12-07 23:45;102,7
2016-12-08 00:00;95,05
2016-12-08 00:15;94,25
2016-12-08 00:30;90,35
2016-12-08 00:45;92,5
2016-12-08 01:00;90,25
2016-12-08 01:15;92
2016-12-08 01:30;92,1
2016-12-08 01:45;91,9
2016-12-08 02:00;90,85
2016-12-08 02:15;91,1
2016-12-08 02:30;91,15
2016-12-08 02:45;93,65
2016-12-08 03:00;91,1
2016-12-08 03:15;92,2
2016-12-08 03:30;91,75
2016-12-08 03:45;91,45
2016-12-08 04:00;91,65
2016-12-08 04:15;91,2
2016-12-08 04:30;90,35
2016-12-08 04:45;91,35
2016-12-08 05:00;89,95
2016-12-08 05:15;93,35
2016-12-08 05:30;96
2016-12-08 05:45;107,75
2016-12-08 06:00;114,8
2016-12-08 06:15;119,2
2016-12-08 06:30;118
2016-12-08 06:45;112,85
2016-12-08 07:00;112,2
2016-12-08 07:15;106,85
2016-12-08 07:30;117,45
2016-12-08 07:45;123,2
2016-12-08 08:00;127,25
2016-12-08 08:15;137,15
2016-12-08 08:30;150,25
2016-12-08 08:45;154,7
2016-12-08 09:00;163,75
2016-12-08 09:15;189,05
2016-12-08 09:30;196,25
2016-12-08 09:45;238,35
2016-12-08 10:00;240,45
2016-12-08 10:15;231,55
2016-12-08 10:30;236,65
2016-12-08 10:45;258,3
2016-12-08 11:00;269,25
2016-12-08 11:15;268,7
2016-12-08 11:30;278,85
2016-12-08 11:45;287,95
2016-12-08 12:00;272,6
2016-12-08 12:15;282,4
2016-12-08 12:30;282,15
2016-12-08 12:45;271,05
2016-12-08 13:00;273,15
2016-12-08 13:15;270,15
2016-12-08 13:30;266,95
2016-12-08 13:45;264,95
2016-12-08 14:00;251,4
2016-12-08 14:15;261,2
2016-12-08 14:30;268,3
2016-12-08 14:45;261,3
2016-12-08 15:00;263,85
2016-12-08 15:15;251,25
2016-12-08 15:30;241,3
2016-12-08 15:45;239,5
2016-12-08 16:00;240,35
2016-12-08 16:15;225
2016-12-08 16:30;219,7
2016-12-08 16:45;220,45
2016-12-08 17:00;212,25
2016-12-08 17:15;222,95
2016-12-08 17:30;209,5
2016-12-08 17:45;208,55
2016-12-08 18:00;198,65
2016-12-08 18:15;197,4
2016-12-08 18:30;192,3
2016-12-08 18:45;186,6
2016-12-08 19:00;186,8
2016-12-08 19:15;185,65
2016-12-08 19:30;174,45
2016-12-08 19:45;172,25
2016-12-08 20:00;167,45
2016-12-08 20:15;155,2
2016-12-08 20:30;146,85
2016-12-08 20:45;145,95
2016-12-08 21:00;141,15
2016-12-08 21:15;138,05
2016-12-08 21:30;137,65
2016-12-08 21:45;124,55
2016-12-08 22:00;120,35
2016-12-08 22:15;126,15
2016-12-08 22:30;117,85
2016-12-08 22:45;111,8
2016-12-08 23:00;112,6
2016-12-08 23:15;105,95
2016-12-08 23:30;98,45
2016-12-08 23:45;94,6
2016-12-09 00:00;96,25
2016-12-09 00:15;93,6
2016-12-09 00:30;94,35
2016-12-09 00:45;96,15
2016-12-09 01:00;91,65
2016-12-09 01:15;92,25
2016-12-09 01:30;90,65
2016-12-09 01:45;92,55
2016-12-09 02:00;91,6
2016-12-09 02:15;90,35
2016-12-09 02:30;90,55
2016-12-09 02:45;88,45
2016-12-09 03:00;93,65
2016-12-09 03:15;94,7
2016-12-09 03:30;97,15
2016-12-09 03:45;94,7
2016-12-09 04:00;97,55
2016-12-09 04:15;97,6
2016-12-09 04:30;95,65
2016-12-09 04:45;98,65
2016-12-09 05:00;97,55
2016-12-09 05:15;103,45
2016-12-09 05:30;106,2
2016-12-09 05:45;110,9
2016-12-09 06:00;109,35
2016-12-09 06:15;124,95
2016-12-09 06:30;134,2
2016-12-09 06:45;131,1
2016-12-09 07:00;124,1
2016-12-09 07:15;118,15
2016-12-09 07:30;117,65
2016-12-09 07:45;125,25
2016-12-09 08:00;138,15
2016-12-09 08:15;132,6
2016-12-09 08:30;152,5
2016-12-09 08:45;160,5
2016-12-09 09:00;164,85
2016-12-09 09:15;165,05
2016-12-09 09:30;179,35
2016-12-09 09:45;187,25
2016-12-09 10:00;196,6
2016-12-09 10:15;245,25
2016-12-09 10:30;191,15
2016-12-09 10:45;201,3
2016-12-09 11:00;205,4
2016-12-09 11:15;202,3
2016-12-09 11:30;203,65
2016-12-09 11:45;192,4
2016-12-09 12:00;209,05
2016-12-09 12:15;199,7
2016-12-09 12:30;210,85
2016-12-09 12:45;208,75
2016-12-09 13:00;214,1
2016-12-09 13:15;210
2016-12-09 13:30;218,4
2016-12-09 13:45;214,75
2016-12-09 14:00;208,65
2016-12-09 14:15;214,45
2016-12-09 14:30;214,45
2016-12-09 14:45;194,25
2016-12-09 15:00;185,45
2016-12-09 15:15;177,95
2016-12-09 15:30;179,95
2016-12-09 15:45;178,2
2016-12-09 16:00;174,1
2016-12-09 16:15;157,25
2016-12-09 16:30;171,85
2016-12-09 16:45;174,7
2016-12-09 17:00;171,7
2016-12-09 17:15;168
2016-12-09 17:30;175,35
2016-12-09 17:45;175,9
2016-12-09 18:00;164,85
2016-12-09 18:15;168,2
2016-12-09 18:30;161,3
2016-12-09 18:45;154,35
2016-12-09 19:00;155,1
2016-12-09 19:15;155,6
2016-12-09 19:30;157,9
2016-12-09 19:45;146,95
2016-12-09 20:00;140,6
2016-12-09 20:15;142,9
2016-12-09 20:30;143,05
2016-12-09 20:45;138,8
2016-12-09 21:00;138,35
2016-12-09 21:15;134,65
2016-12-09 21:30;127,25
2016-12-09 21:45;121,4
2016-12-09 22:00;119,5
2016-12-09 22:15;117,5
2016-12-09 22:30;117,3
2016-12-09 22:45;108,5
2016-12-09 23:00;104,85
2016-12-09 23:15;97,05
2016-12-09 23:30;95,95
2016-12-09 23:45;91,7
2016-12-10 00:00;90,7
2016-12-10 00:15;93,25
2016-12-10 00:30;89,45
2016-12-10 00:45;90,8
2016-12-10 01:00;89
2016-12-10 01:15;91,75
2016-12-10 01:30;86,4
2016-12-10 01:45;88,8
2016-12-10 02:00;85,7
2016-12-10 02:15;88,4
2016-12-10 02:30;85,4
2016-12-10 02:45;86,15
2016-12-10 03:00;87,65
2016-12-10 03:15;84,4
2016-12-10 03:30;86,3
2016-12-10 03:45;84,3
2016-12-10 04:00;85,75
2016-12-10 04:15;86,25
2016-12-10 04:30;84,6
2016-12-10 04:45;86,3
2016-12-10 05:00;83,75
2016-12-10 05:15;85,85
2016-12-10 05:30;84,45
2016-12-10 05:45;86,35
2016-12-10 06:00;89,9
2016-12-10 06:15;91,8
2016-12-10 06:30;90,05
2016-12-10 06:45;88,15
2016-12-10 07:00;92,05
2016-12-10 07:15;87,55
2016-12-10 07:30;81,05
2016-12-10 07:45;81,4
2016-12-10 08:00;79,55
2016-12-10 08:15;81,1
2016-12-10 08:30;83,75
2016-12-10 08:45;84,45
2016-12-10 09:00;82,95
2016-12-10 09:15;81,35
2016-12-10 09:30;76,6
2016-12-10 09:45;83,1
2016-12-10 10:00;84,9
2016-12-10 10:15;82,1
2016-12-10 10:30;85,55
2016-12-10 10:45;125,75
2016-12-10 11:00;93,5
2016-12-10 11:15;103,55
2016-12-10 11:30;95,5
2016-12-10 11:45;98,75
2016-12-10 12:00;97,55
2016-12-10 12:15;106,15
2016-12-10 12:30;90,9
2016-12-10 12:45;100
2016-12-10 13:00;91,55
2016-12-10 13:15;96,3
2016-12-10 13:30;98,1
2016-12-10 13:45;91,35
2016-12-10 14:00;90,7
2016-12-10 14:15;89,8
2016-12-10 14:30;90
2016-12-10 14:45;89
2016-12-10 15:00;92,8
2016-12-10 15:15;90,85
2016-12-10 15:30;92,6
2016-12-10 15:45;92,4
2016-12-10 16:00;94,6
2016-12-10 16:15;95,85
2016-12-10 16:30;92,1
2016-12-10 16:45;92,25
2016-12-10 17:00;86,75
2016-12-10 17:15;92,6
2016-12-10 17:30;97,3
2016-12-10 17:45;101,15
2016-12-10 18:00;103,3
2016-12-10 18:15;101,65
2016-12-10 18:30;105,4
2016-12-10 18:45;105,8
2016-12-10 19:00;109,4
2016-12-10 19:15;112,3
2016-12-10 19:30;103,8
2016-12-10 19:45;101,1
2016-12-10 20:00;103
2016-12-10 20:15;106
2016-12-10 20:30;102,3
2016-12-10 20:45;109,5
2016-12-10 21:00;109,05
2016-12-10 21:15;108,15
2016-12-10 21:30;108,7
2016-12-10 21:45;105,2
2016-12-10 22:00;99,4
2016-12-10 22:15;105,5
2016-12-10 22:30;102,75
2016-12-10 22:45;101,35
2016-12-10 23:00;102
2016-12-10 23:15;98,2
2016-12-10 23:30;92,05
2016-12-10 23:45;88,45
2016-12-11 00:00;89,9
2016-12-11 00:15;85,45
2016-12-11 00:30;87,95
2016-12-11 00:45;85,15
2016-12-11 01:00;85,65
2016-12-11 01:15;85,7
2016-12-11 01:30;84,15
2016-12-11 01:45;84,3
2016-12-11 02:00;83,2
2016-12-11 02:15;84,5
2016-12-11 02:30;84,6
2016-12-11 02:45;86,5
2016-12-11 03:00;84,5
2016-12-11 03:15;83,8
2016-12-11 03:30;85,1
2016-12-11 03:45;82,65
2016-12-11 04:00;86,25
2016-12-11 04:15;86,25
2016-12-11 04:30;86,9
2016-12-11 04:45;86,25
2016-12-11 05:00;83,3
2016-12-11 05:15;86,15
2016-12-11 05:30;83,2
2016-12-11 05:45;86,2
2016-12-11 06:00;88,25
2016-12-11 06:15;90,5
2016-12-11 06:30;93,95
2016-12-11 06:45;93,6
2016-12-11 07:00;93,1
2016-12-11 07:15;91,95
2016-12-11 07:30;89,15
2016-12-11 07:45;85,85
2016-12-11 08:00;83,65
2016-12-11 08:15;82,6
2016-12-11 08:30;83,8
2016-12-11 08:45;78,9
2016-12-11 09:00;76,75
2016-12-11 09:15;76,45
2016-12-11 09:30;74,6
2016-12-11 09:45;76,3
2016-12-11 10:00;73,45
2016-12-11 10:15;75,95
2016-12-11 10:30;76,1
2016-12-11 10:45;76,65
2016-12-11 11:00;73,25
2016-12-11 11:15;82,4
2016-12-11 11:30;95,9
2016-12-11 11:45;97,6
2016-12-11 12:00;97,45
2016-12-11 12:15;95,55
2016-12-11 12:30;97,25
2016-12-11 12:45;94,65
2016-12-11 13:00;91,2
2016-12-11 13:15;91,2
2016-12-11 13:30;91,5
2016-12-11 13:45;90,85
2016-12-11 14:00;91,25
2016-12-11 14:15;87,35
2016-12-11 14:30;91,85
2016-12-11 14:45;98
2016-12-11 15:00;97,75
2016-12-11 15:15;95,75
2016-12-11 15:30;99,4
2016-12-11 15:45;98,7
2016-12-11 16:00;98,35
2016-12-11 16:15;96,6
2016-12-11 16:30;100,55
2016-12-11 16:45;102,5
2016-12-11 17:00;107,4
2016-12-11 17:15;107,35
2016-12-11 17:30;109,5
2016-12-11 17:45;111,45
2016-12-11 18:00;108,7
2016-12-11 18:15;111,05
2016-12-11 18:30;110,5
2016-12-11 18:45;109,9
2016-12-11 19:00;114,95
2016-12-11 19:15;110,8
2016-12-11 19:30;111,95
2016-12-11 19:45;109,15
2016-12-11 20:00;109,4
2016-12-11 20:15;109,7
2016-12-11 20:30;112,3
2016-12-11 20:45;108,8
2016-12-11 21:00;101,55
2016-12-11 21:15;100,5
2016-12-11 21:30;96,25
2016-12-11 21:45;95,55
2016-12-11 22:00;98,35
2016-12-11 22:15;106,45
2016-12-11 22:30;102,95
2016-12-11 22:45;99,1
2016-12-11 23:00;104,15
2016-12-11 23:15;95,6
2016-12-11 23:30;98,9
2016-12-11 23:45;98,35

